DW5623 Weather Reports


time (UTC)temp
F
wind
direction
speed
knots
gust
knots
rain 1hr
in
rain 24hr
in
rain mn
in
humidity
%
barometer
mb
20260502200047 69 0 0.0 0.9 0.00 0.00 0.00 47 1016.1
20260502194541 69 0 0.0 1.7 0.00 0.00 0.00 46 1016.0
20260502193049 70 0 0.9 2.6 0.00 0.00 0.00 45 1016.0
20260502191546 71 0 0.0 1.7 0.00 0.00 0.00 44 1016.0
20260502190048 72 0 0.9 2.6 0.00 0.00 0.00 41 1016.0
20260502184555 74 0 0.0 1.7 0.00 0.00 0.00 40 1015.8
20260502183045 76 231 0.0 1.7 0.00 0.00 0.00 38 1015.8
20260502181544 78 5 0.0 1.7 0.00 0.00 0.00 36 1015.6
20260502163045 79 225 0.9 4.3 0.00 0.00 0.00 33 1015.7
20260502161543 79 338 1.7 7.0 0.00 0.00 0.00 33 1016.0
20260502151546 79 0 0.9 5.2 0.00 0.00 0.00 32 1016.6
20260502123048 77 344 0.9 3.5 0.00 0.00 0.00 38 1018.8
20260502121550 75 206 0.9 4.3 0.00 0.00 0.00 41 1019.1
20260502114548 75 82 0.9 2.6 0.00 0.00 0.00 44 1019.6
20260502113045 74 23 0.9 4.3 0.00 0.00 0.00 43 1019.8
20260502111554 73 175 0.9 4.3 0.00 0.00 0.00 45 1020.0
20260502110045 73 194 0.9 4.3 0.00 0.00 0.00 47 1020.2
20260502104543 72 54 1.7 5.2 0.00 0.00 0.00 49 1020.4
20260502103058 72 0 0.9 3.5 0.00 0.00 0.00 49 1020.7
20260502101555 71 24 0.9 3.5 0.00 0.00 0.00 51 1021.0
20260502070044 58 0 0.0 0.0 0.00 0.00 0.00 61 1022.5
20260502064543 56 0 0.0 0.0 0.00 0.00 0.00 63 1022.6
20260502063046 55 0 0.0 0.0 0.00 0.00 0.00 65 1022.6
20260502061547 54 0 0.0 0.0 0.00 0.00 0.00 66 1022.6
20260502060047 53 0 0.0 0.0 0.00 0.00 0.00 67 1022.6
20260502054545 52 0 0.0 0.0 0.00 0.00 0.00 68 1022.5
20260502053042 52 0 0.0 0.0 0.00 0.00 0.00 68 1022.6
20260502051542 51 0 0.0 0.0 0.00 0.00 0.00 70 1022.6
20260502050042 51 0 0.0 0.0 0.00 0.00 0.00 71 1022.4
20260502044548 51 0 0.0 0.0 0.00 0.00 0.00 72 1022.4
20260502043045 51 0 0.0 0.0 0.00 0.00 0.00 71 1022.3
20260502041543 51 0 0.0 0.0 0.00 0.00 0.00 71 1022.3
20260502040044 51 0 0.0 0.0 0.00 0.00 0.00 69 1022.2
20260502034539 52 0 0.0 0.0 0.00 0.00 0.00 68 1022.2
20260502033048 52 0 0.0 0.0 0.00 0.00 0.00 67 1022.2
20260502031544 52 0 0.0 0.0 0.00 0.00 0.00 67 1022.2
20260502030043 52 0 0.0 0.0 0.00 0.00 0.00 66 1022.3
20260502024541 53 0 0.0 0.0 0.00 0.00 0.00 65 1022.3
20260502023047 53 0 0.0 0.0 0.00 0.00 0.00 65 1022.2
20260502021547 53 0 0.0 0.0 0.00 0.00 0.00 64 1022.2
20260502020045 54 0 0.0 0.0 0.00 0.00 0.00 62 1022.1
20260502014547 54 0 0.0 0.0 0.00 0.00 0.00 61 1022.2
20260502013047 55 0 0.0 0.0 0.00 0.00 0.00 61 1022.1
20260502011548 55 0 0.0 0.0 0.00 0.00 0.00 59 1022.2
20260502010052 55 0 0.0 0.0 0.00 0.00 0.00 58 1022.2
20260502004602 56 0 0.0 0.0 0.00 0.00 0.00 58 1022.2
20260502003042 56 0 0.0 0.0 0.00 0.00 0.00 57 1022.2
20260502001541 56 0 0.0 0.0 0.00 0.00 0.00 56 1022.2
20260502000052 56 0 0.0 0.0 0.00 0.00 0.00 55 1022.3
20260501234540 57 0 0.0 0.0 0.00 0.00 0.00 54 1022.4
20260501233047 57 0 0.0 0.0 0.00 0.00 0.00 53 1022.3
20260501231544 57 0 0.0 0.0 0.00 0.00 0.00 53 1022.2
20260501230043 58 0 0.0 0.0 0.00 0.00 0.00 53 1022.3
20260501224543 58 0 0.0 0.0 0.00 0.00 0.00 52 1022.2
20260501223049 59 0 0.0 0.0 0.00 0.00 0.00 51 1022.2
20260501221547 59 0 0.0 0.0 0.00 0.00 0.00 51 1022.2
20260501220052 59 0 0.0 0.0 0.00 0.00 0.00 51 1022.2
20260501214543 60 98 0.0 0.9 0.00 0.00 0.00 49 1022.2
20260501213059 61 0 0.0 1.7 0.00 0.00 0.00 47 1022.1
20260501211541 61 0 0.0 0.9 0.00 0.00 0.00 44 1022.1
20260501210048 62 0 0.0 1.7 0.00 0.00 0.00 42 1022.1
20260501204550 63 0 0.0 0.9 0.00 0.00 0.00 41 1022.1
20260501203046 64 0 0.0 0.9 0.00 0.00 0.00 40 1022.1
20260501201544 64 0 0.0 0.9 0.00 0.00 0.00 39 1022.1